Terminal Aerodrome Forecast
Issued by NWS Raleigh/Durham, NC

Current Version | Previous Version | Text Only | Print | Product List | Glossary On
Versions: 1 2 3 4 5 6 7 8 9 10 11 12 13 14 15 16 17 18 19 20 21 22 23 24
098 FTUS42 KRAH 041133 TAFGSO TAF KGSO 041133Z 0412/0512 03005KT P6SM -RA FEW080 OVC090 FM041500 08005KT P6SM -RA OVC060 FM041700 10004KT 6SM -RA BR BKN015 OVC050 FM041900 12004KT 4SM -RA BR BKN008 OVC025 FM042300 13004KT 3SM -RA BR OVC006 FM050800 VRB03KT 4SM -DZ BR OVC005=

USA.gov is the U.S. government's official web portal to all federal, state and local government web resources and services.